Location: Avebury
(53.1487°N, 106.9774°W)
Time: 13:58:54
(UTC+00:00)

Envisat - Pass Details

Date: 23 January 2022
Orbit: 764 x 765 km, 98.2° (Epoch: 22 May)

Event Time Altitude Azimuth Distance (km) Brightness Sun altitude
Rises 11:08:03 0° 22° (NNE) 3,244 6.7 -35.0°
Reaches altitude 10° 11:10:45 10° 35° (NE) 2,313 6.0 -34.6°
Maximum altitude 11:14:59 26° 92° (E) 1,474 5.0 -34.0°
Drops below altitude 10° 11:19:13 10° 148° (SSE) 2,299 5.6 -33.3°
Sets 11:21:52 0° 161° (SSE) 3,220 6.3 -33.0°
